Location: ?????
(30.2541°N, 31.0910°E)
Time: 08:24:14
(UTC+00:00)

Cosmos 1484 Rocket - Pass Details

Date: 27 September 2022
Orbit: 499 x 552 km, 97.5° (Epoch: 28 November)

Event Time Altitude Azimuth Distance (km) Brightness Sun altitude
Rises 02:35:37 0° 356° (N) 2,732 6.4 -16.1°
Reaches altitude 10° 02:37:59 10° 344° (NNW) 1,835 5.4 -15.6°
Maximum altitude 02:41:20 26° 287° (WNW) 1,095 3.8 -14.9°
Enters shadow 02:41:51 26° 274° (W) 1,117 3.8 -14.8°
